| time (UTC) | temp F | wind direction | speed knots | gust knots | rain 1hr in | rain 24hr in | rain mn in | humidity % | barometer mb |
| 20260504025556 | 37 | 0 | 0.0 | 0.0 | 0.00 | 0.00 | 0.00 | 84 | 1012.3 |
| 20260504025057 | 37 | 0 | 0.0 | 0.0 | 0.00 | 0.00 | 0.00 | 84 | 1012.3 |
| 20260504024600 | 37 | 0 | 0.0 | 0.0 | 0.00 | 0.00 | 0.00 | 84 | 1012.3 |
| 20260504024056 | 37 | 0 | 0.0 | 0.0 | 0.00 | 0.00 | 0.00 | 83 | 1012.3 |
| 20260504023556 | 37 | 0 | 0.0 | 0.0 | 0.00 | 0.00 | 0.00 | 83 | 1012.4 |
| 20260504023100 | 38 | 0 | 0.0 | 0.0 | 0.00 | 0.00 | 0.00 | 83 | 1012.3 |
| 20260504022557 | 38 | 0 | 0.0 | 0.0 | 0.00 | 0.00 | 0.00 | 83 | 1012.2 |
| 20260504022056 | 38 | 0 | 0.0 | 0.0 | 0.00 | 0.00 | 0.00 | 82 | 1012.2 |
| 20260504021557 | 38 | 0 | 0.0 | 0.0 | 0.00 | 0.00 | 0.00 | 82 | 1012.3 |
| 20260504021059 | 38 | 0 | 0.0 | 0.0 | 0.00 | 0.00 | 0.00 | 82 | 1012.4 |
| 20260504020556 | 39 | 0 | 0.0 | 0.0 | 0.00 | 0.00 | 0.00 | 82 | 1012.3 |
| 20260504020107 | 39 | 0 | 0.0 | 0.0 | 0.00 | 0.00 | 0.00 | 81 | 1012.3 |
| 20260504015557 | 39 | 0 | 0.0 | 0.0 | 0.00 | 0.00 | 0.00 | 81 | 1012.2 |
| 20260504015057 | 39 | 0 | 0.0 | 0.0 | 0.00 | 0.00 | 0.00 | 80 | 1012.3 |
| 20260504014604 | 39 | 0 | 0.0 | 0.0 | 0.00 | 0.00 | 0.00 | 80 | 1012.3 |
| 20260504014056 | 40 | 0 | 0.0 | 0.0 | 0.00 | 0.00 | 0.00 | 79 | 1012.2 |
| 20260504013556 | 40 | 0 | 0.0 | 0.0 | 0.00 | 0.00 | 0.00 | 79 | 1012.2 |
| 20260504013058 | 40 | 0 | 0.0 | 0.0 | 0.00 | 0.00 | 0.00 | 78 | 1012.1 |
| 20260504012556 | 41 | 0 | 0.0 | 0.0 | 0.00 | 0.00 | 0.00 | 78 | 1012.0 |
| 20260504012057 | 41 | 0 | 0.0 | 0.0 | 0.00 | 0.00 | 0.00 | 78 | 1012.1 |
| 20260504011557 | 41 | 0 | 0.0 | 0.0 | 0.00 | 0.00 | 0.00 | 77 | 1012.0 |
| 20260504011056 | 41 | 0 | 0.0 | 0.0 | 0.00 | 0.00 | 0.00 | 76 | 1011.9 |
| 20260504010556 | 42 | 0 | 0.0 | 0.0 | 0.00 | 0.00 | 0.00 | 76 | 1011.9 |
| 20260504010056 | 42 | 0 | 0.0 | 0.0 | 0.00 | 0.00 | 0.00 | 75 | 1011.8 |
| 20260504005557 | 42 | 0 | 0.0 | 0.0 | 0.00 | 0.00 | 0.00 | 73 | 1011.7 |
| 20260504005100 | 43 | 0 | 0.0 | 0.0 | 0.00 | 0.00 | 0.00 | 73 | 1011.7 |
| 20260504004556 | 43 | 0 | 0.0 | 0.0 | 0.00 | 0.00 | 0.00 | 71 | 1011.7 |
| 20260504004057 | 44 | 0 | 0.0 | 0.0 | 0.00 | 0.00 | 0.00 | 70 | 1011.6 |
| 20260504003557 | 44 | 0 | 0.0 | 0.0 | 0.00 | 0.00 | 0.00 | 68 | 1011.5 |
| 20260504003056 | 45 | 0 | 0.0 | 0.0 | 0.00 | 0.00 | 0.00 | 67 | 1011.5 |
| 20260504002556 | 46 | 0 | 0.0 | 0.0 | 0.00 | 0.00 | 0.00 | 64 | 1011.4 |
| 20260504002056 | 46 | 0 | 0.0 | 0.0 | 0.00 | 0.00 | 0.00 | 62 | 1011.3 |
| 20260504001606 | 47 | 0 | 0.0 | 0.0 | 0.00 | 0.00 | 0.00 | 61 | 1011.2 |
| 20260504001056 | 48 | 0 | 0.0 | 0.0 | 0.00 | 0.00 | 0.00 | 58 | 1011.2 |
| 20260504000556 | 49 | 0 | 0.0 | 0.0 | 0.00 | 0.00 | 0.00 | 55 | 1011.2 |
| 20260504000059 | 49 | 0 | 0.0 | 0.0 | 0.00 | 0.00 | 0.00 | 53 | 1011.2 |
| 20260503235558 | 50 | 0 | 0.0 | 0.0 | 0.00 | 0.00 | 0.00 | 51 | 1011.1 |
| 20260503235058 | 51 | 0 | 0.0 | 0.0 | 0.00 | 0.00 | 0.00 | 48 | 1011.0 |
| 20260503234555 | 52 | 0 | 0.0 | 3.5 | 0.00 | 0.00 | 0.00 | 47 | 1011.0 |
| 20260503234057 | 53 | 0 | 0.0 | 3.5 | 0.00 | 0.00 | 0.00 | 46 | 1010.9 |
| 20260503233557 | 54 | 0 | 0.0 | 3.5 | 0.00 | 0.00 | 0.00 | 41 | 1010.9 |
| 20260503233101 | 55 | 0 | 0.0 | 2.6 | 0.00 | 0.00 | 0.00 | 40 | 1010.8 |
| 20260503232558 | 55 | 0 | 0.0 | 10.4 | 0.00 | 0.00 | 0.00 | 38 | 1010.8 |
| 20260503232056 | 56 | 0 | 1.7 | 10.4 | 0.00 | 0.00 | 0.00 | 37 | 1010.9 |
| 20260503231556 | 56 | 0 | 0.9 | 7.8 | 0.00 | 0.00 | 0.00 | 37 | 1010.8 |
| 20260503231057 | 56 | 286 | 0.9 | 7.8 | 0.00 | 0.00 | 0.00 | 35 | 1010.8 |
| 20260503230556 | 57 | 0 | 0.9 | 7.8 | 0.00 | 0.00 | 0.00 | 34 | 1010.6 |
| 20260503225557 | 57 | 0 | 0.0 | 12.2 | 0.00 | 0.00 | 0.00 | 33 | 1010.6 |
| 20260503225100 | 58 | 0 | 0.0 | 12.2 | 0.00 | 0.00 | 0.00 | 35 | 1010.6 |
| 20260503224555 | 58 | 0 | 2.6 | 13.9 | 0.00 | 0.00 | 0.00 | 34 | 1010.6 |
| 20260503224058 | 59 | 230 | 1.7 | 13.9 | 0.00 | 0.00 | 0.00 | 32 | 1010.4 |
| 20260503223557 | 59 | 195 | 2.6 | 13.9 | 0.00 | 0.00 | 0.00 | 31 | 1010.5 |
| 20260503223058 | 59 | 0 | 3.5 | 13.9 | 0.00 | 0.00 | 0.00 | 30 | 1010.4 |
| 20260503222556 | 60 | 0 | 2.6 | 8.7 | 0.00 | 0.00 | 0.00 | 31 | 1010.3 |
| 20260503222056 | 60 | 0 | 0.9 | 8.7 | 0.00 | 0.00 | 0.00 | 33 | 1010.4 |
| 20260503221600 | 60 | 229 | 3.5 | 9.6 | 0.00 | 0.00 | 0.00 | 31 | 1010.4 |
| 20260503221058 | 60 | 316 | 3.5 | 9.6 | 0.00 | 0.00 | 0.00 | 29 | 1010.4 |
| 20260503220558 | 60 | 317 | 3.5 | 7.8 | 0.00 | 0.00 | 0.00 | 30 | 1010.3 |
| 20260503220057 | 60 | 276 | 0.9 | 11.3 | 0.00 | 0.00 | 0.00 | 33 | 1010.4 |
| 20260503215556 | 60 | 211 | 2.6 | 11.3 | 0.00 | 0.00 | 0.00 | 30 | 1010.2 |
| 20260503215056 | 60 | 159 | 3.5 | 8.7 | 0.00 | 0.00 | 0.00 | 29 | 1010.2 |
| 20260503214603 | 60 | 0 | 1.7 | 7.8 | 0.00 | 0.00 | 0.00 | 29 | 1010.3 |
| 20260503214057 | 59 | 0 | 1.7 | 7.8 | 0.00 | 0.00 | 0.00 | 31 | 1010.1 |
| 20260503213556 | 59 | 178 | 1.7 | 7.8 | 0.00 | 0.00 | 0.00 | 31 | 1010.3 |
| 20260503213058 | 59 | 0 | 0.9 | 10.4 | 0.00 | 0.00 | 0.00 | 30 | 1010.3 |
| 20260503212557 | 59 | 0 | 1.7 | 10.4 | 0.00 | 0.00 | 0.00 | 31 | 1010.3 |
| 20260503212057 | 59 | 222 | 3.5 | 13.0 | 0.00 | 0.00 | 0.00 | 30 | 1010.2 |
| 20260503211556 | 59 | 188 | 3.5 | 13.0 | 0.00 | 0.00 | 0.00 | 30 | 1010.3 |
| 20260503211058 | 60 | 237 | 5.2 | 13.0 | 0.00 | 0.00 | 0.00 | 28 | 1010.3 |
| 20260503210556 | 60 | 0 | 4.3 | 10.4 | 0.00 | 0.00 | 0.00 | 32 | 1010.2 |
| 20260503210058 | 60 | 0 | 2.6 | 7.8 | 0.00 | 0.00 | 0.00 | 30 | 1010.3 |
| 20260503205556 | 60 | 211 | 1.7 | 15.6 | 0.00 | 0.00 | 0.00 | 30 | 1010.2 |
| 20260503205057 | 60 | 268 | 3.5 | 15.6 | 0.00 | 0.00 | 0.00 | 31 | 1010.3 |
| 20260503204603 | 61 | 287 | 0.9 | 13.0 | 0.00 | 0.00 | 0.00 | 30 | 1010.3 |
| 20260503204057 | 60 | 225 | 2.6 | 13.0 | 0.00 | 0.00 | 0.00 | 31 | 1010.3 |
| 20260503203556 | 60 | 282 | 1.7 | 9.6 | 0.00 | 0.00 | 0.00 | 30 | 1010.3 |
| 20260503203059 | 60 | 0 | 2.6 | 9.6 | 0.00 | 0.00 | 0.00 | 30 | 1010.3 |
| 20260503202557 | 59 | 289 | 1.7 | 15.6 | 0.00 | 0.00 | 0.00 | 31 | 1010.5 |
| 20260503202059 | 59 | 279 | 3.5 | 15.6 | 0.00 | 0.00 | 0.00 | 31 | 1010.6 |
| 20260503201558 | 59 | 285 | 1.7 | 8.7 | 0.00 | 0.00 | 0.00 | 33 | 1010.7 |
| 20260503201056 | 59 | 230 | 1.7 | 8.7 | 0.00 | 0.00 | 0.00 | 31 | 1010.7 |
| 20260503200558 | 59 | 233 | 3.5 | 9.6 | 0.00 | 0.00 | 0.00 | 31 | 1010.6 |
| 20260503200058 | 58 | 292 | 1.7 | 9.6 | 0.00 | 0.00 | 0.00 | 32 | 1010.7 |
| 20260503195557 | 58 | 209 | 1.7 | 9.6 | 0.00 | 0.00 | 0.00 | 31 | 1010.8 |
| 20260503195056 | 57 | 0 | 2.6 | 8.7 | 0.00 | 0.00 | 0.00 | 32 | 1010.9 |
| 20260503194600 | 57 | 224 | 0.9 | 13.9 | 0.00 | 0.00 | 0.00 | 33 | 1010.8 |
| 20260503194058 | 58 | 205 | 2.6 | 13.9 | 0.00 | 0.00 | 0.00 | 31 | 1010.9 |
| 20260503193556 | 59 | 240 | 1.7 | 11.3 | 0.00 | 0.00 | 0.00 | 32 | 1011.0 |
| 20260503193111 | 59 | 196 | 2.6 | 11.3 | 0.00 | 0.00 | 0.00 | 33 | 1011.1 |
| 20260503192556 | 59 | 185 | 2.6 | 8.7 | 0.00 | 0.00 | 0.00 | 32 | 1011.0 |
| 20260503192057 | 57 | 0 | 1.7 | 8.7 | 0.00 | 0.00 | 0.00 | 32 | 1011.0 |
| 20260503191558 | 56 | 252 | 2.6 | 8.7 | 0.00 | 0.00 | 0.00 | 30 | 1011.2 |
| 20260503191057 | 58 | 0 | 1.7 | 13.0 | 0.00 | 0.00 | 0.00 | 31 | 1011.3 |
| 20260503190557 | 58 | 17 | 3.5 | 13.0 | 0.00 | 0.00 | 0.00 | 32 | 1011.1 |
| 20260503190108 | 58 | 213 | 1.7 | 12.2 | 0.00 | 0.00 | 0.00 | 30 | 1011.1 |
| 20260503185556 | 58 | 331 | 3.5 | 12.2 | 0.00 | 0.00 | 0.00 | 33 | 1011.1 |
| 20260503185056 | 57 | 219 | 4.3 | 12.2 | 0.00 | 0.00 | 0.00 | 32 | 1011.1 |
| 20260503184603 | 59 | 263 | 3.5 | 13.0 | 0.00 | 0.00 | 0.00 | 30 | 1011.2 |
| 20260503184057 | 59 | 199 | 3.5 | 16.5 | 0.00 | 0.00 | 0.00 | 35 | 1011.2 |
| 20260503183557 | 58 | 59 | 5.2 | 16.5 | 0.00 | 0.00 | 0.00 | 30 | 1011.3 |
| 20260503183109 | 56 | 234 | 7.0 | 13.9 | 0.00 | 0.00 | 0.00 | 33 | 1011.3 |
| 20260503182557 | 57 | 267 | 2.6 | 13.0 | 0.00 | 0.00 | 0.00 | 32 | 1011.5 |
| 20260503182057 | 56 | 342 | 4.3 | 13.0 | 0.00 | 0.00 | 0.00 | 33 | 1011.6 |
| 20260503181559 | 57 | 266 | 3.5 | 13.0 | 0.00 | 0.00 | 0.00 | 33 | 1011.5 |
| 20260503181057 | 56 | 321 | 3.5 | 13.0 | 0.00 | 0.00 | 0.00 | 34 | 1011.2 |
| 20260503180600 | 57 | 293 | 5.2 | 13.0 | 0.00 | 0.00 | 0.00 | 32 | 1011.4 |
| 20260503180100 | 57 | 149 | 3.5 | 11.3 | 0.00 | 0.00 | 0.00 | 32 | 1011.5 |
| 20260503175556 | 56 | 273 | 0.9 | 11.3 | 0.00 | 0.00 | 0.00 | 34 | 1011.5 |
| 20260503175056 | 57 | 306 | 2.6 | 8.7 | 0.00 | 0.00 | 0.00 | 33 | 1011.3 |
| 20260503174556 | 56 | 274 | 1.7 | 9.6 | 0.00 | 0.00 | 0.00 | 33 | 1011.5 |
| 20260503174100 | 55 | 299 | 1.7 | 11.3 | 0.00 | 0.00 | 0.00 | 35 | 1011.5 |
| 20260503173559 | 57 | 289 | 1.7 | 11.3 | 0.00 | 0.00 | 0.00 | 35 | 1011.6 |
| 20260503173112 | 54 | 259 | 1.7 | 10.4 | 0.00 | 0.00 | 0.00 | 40 | 1011.7 |
| 20260503172556 | 54 | 271 | 0.9 | 10.4 | 0.00 | 0.00 | 0.00 | 35 | 1011.6 |
| 20260503172101 | 54 | 330 | 1.7 | 7.8 | 0.00 | 0.00 | 0.00 | 37 | 1011.7 |
| 20260503171557 | 55 | 0 | 1.7 | 13.0 | 0.00 | 0.00 | 0.00 | 38 | 1011.7 |
| 20260503171057 | 54 | 0 | 3.5 | 13.0 | 0.00 | 0.00 | 0.00 | 35 | 1011.8 |
| 20260503170558 | 54 | 267 | 4.3 | 12.2 | 0.00 | 0.00 | 0.00 | 35 | 1011.7 |
| 20260503150556 | 51 | 278 | 4.3 | 12.2 | 0.00 | 0.00 | 0.00 | 43 | 1012.9 |
| 20260503150112 | 50 | 198 | 2.6 | 12.2 | 0.00 | 0.00 | 0.00 | 52 | 1012.9 |
| 20260503140118 | 50 | 288 | 0.9 | 12.2 | 0.00 | 0.00 | 0.00 | 46 | 1012.7 |
| 20260503131056 | 46 | 0 | 1.7 | 7.8 | 0.00 | 0.00 | 0.00 | 52 | 1012.6 |
| 20260503130556 | 47 | 219 | 2.6 | 7.8 | 0.00 | 0.00 | 0.00 | 49 | 1012.7 |
| 20260503110600 | 41 | 300 | 0.0 | 5.2 | 0.00 | 0.00 | 0.00 | 63 | 1012.1 |
| 20260503110115 | 41 | 0 | 0.0 | 5.2 | 0.00 | 0.00 | 0.00 | 61 | 1012.1 |
| 20260503100108 | 41 | 0 | 0.0 | 7.0 | 0.00 | 0.00 | 0.00 | 61 | 1011.2 |
| 20260503081606 | 43 | 0 | 0.0 | 5.2 | 0.00 | 0.01 | 0.00 | 57 | 1010.6 |
| 20260503081057 | 43 | 0 | 0.9 | 5.2 | 0.00 | 0.01 | 0.00 | 56 | 1010.6 |
| 20260503080559 | 43 | 0 | 0.0 | 4.3 | 0.00 | 0.01 | 0.00 | 57 | 1010.6 |
| 20260503072557 | 43 | 0 | 0.0 | 4.3 | 0.00 | 0.01 | 0.00 | 59 | 1010.3 |
| 20260503072100 | 43 | 0 | 0.0 | 4.3 | 0.00 | 0.01 | 0.00 | 58 | 1010.4 |
| 20260503071609 | 43 | 0 | 0.9 | 5.2 | 0.00 | 0.01 | 0.00 | 57 | 1010.4 |
| 20260503071056 | 43 | 0 | 0.0 | 5.2 | 0.00 | 0.01 | 0.00 | 58 | 1010.2 |
| 20260503070556 | 43 | 315 | 0.0 | 3.5 | 0.00 | 0.01 | 0.00 | 57 | 1010.3 |
| 20260503060108 | 44 | 0 | 0.0 | 4.3 | 0.00 | 0.02 | 0.00 | 57 | 1010.3 |
| 20260503055057 | 44 | 0 | 0.9 | 7.8 | 0.00 | 0.02 | 0.00 | 56 | 1010.4 |
| 20260503054558 | 44 | 316 | 0.0 | 3.5 | 0.00 | 0.02 | 0.00 | 56 | 1010.6 |
| 20260503054057 | 44 | 0 | 0.0 | 3.5 | 0.00 | 0.02 | 0.00 | 57 | 1010.5 |
| 20260503053557 | 44 | 307 | 0.0 | 3.5 | 0.00 | 0.02 | 0.00 | 57 | 1010.6 |
| 20260503053058 | 44 | 0 | 0.0 | 4.3 | 0.00 | 0.02 | 0.00 | 57 | 1010.7 |
| 20260503052556 | 44 | 0 | 0.0 | 4.3 | 0.00 | 0.02 | 0.00 | 57 | 1010.7 |
| 20260503052057 | 44 | 320 | 0.0 | 4.3 | 0.00 | 0.02 | 0.00 | 57 | 1010.9 |
| 20260503051600 | 44 | 0 | 0.0 | 4.3 | 0.00 | 0.02 | 0.00 | 55 | 1010.9 |
| 20260503051056 | 44 | 0 | 0.9 | 4.3 | 0.00 | 0.02 | 0.00 | 55 | 1011.0 |
| 20260503050601 | 44 | 274 | 0.0 | 4.3 | 0.00 | 0.02 | 0.00 | 57 | 1011.1 |
| 20260503050058 | 44 | 326 | 0.0 | 3.5 | 0.00 | 0.02 | 0.00 | 56 | 1011.1 |
| 20260503045557 | 44 | 0 | 0.0 | 3.5 | 0.00 | 0.02 | 0.00 | 58 | 1011.2 |
| 20260503045057 | 44 | 0 | 0.9 | 3.5 | 0.00 | 0.02 | 0.00 | 56 | 1011.2 |
| 20260503044557 | 44 | 253 | 0.0 | 5.2 | 0.00 | 0.02 | 0.00 | 57 | 1011.2 |
| 20260503044058 | 43 | 0 | 0.0 | 5.2 | 0.00 | 0.02 | 0.00 | 57 | 1011.3 |
| 20260503043557 | 43 | 350 | 0.9 | 5.2 | 0.00 | 0.02 | 0.00 | 59 | 1011.3 |
| 20260503043056 | 43 | 0 | 0.0 | 3.5 | 0.00 | 0.02 | 0.00 | 61 | 1011.4 |
| 20260503042557 | 43 | 0 | 0.0 | 3.5 | 0.00 | 0.02 | 0.00 | 62 | 1011.4 |
| 20260503042057 | 42 | 0 | 0.0 | 3.5 | 0.00 | 0.02 | 0.00 | 61 | 1011.4 |
| 20260503041556 | 42 | 5 | 0.0 | 2.6 | 0.00 | 0.02 | 0.00 | 63 | 1011.4 |
| 20260503041058 | 42 | 0 | 0.0 | 2.6 | 0.00 | 0.02 | 0.00 | 64 | 1011.4 |
| 20260503040556 | 42 | 0 | 0.0 | 0.9 | 0.00 | 0.02 | 0.00 | 67 | 1011.4 |
| 20260503040059 | 41 | 0 | 0.0 | 2.6 | 0.00 | 0.02 | 0.00 | 66 | 1011.5 |
| 20260503035557 | 41 | 0 | 0.0 | 2.6 | 0.00 | 0.02 | 0.02 | 69 | 1011.6 |
| 20260503035059 | 41 | 0 | 0.0 | 1.7 | 0.00 | 0.02 | 0.02 | 71 | 1011.5 |
| 20260503034555 | 41 | 0 | 0.0 | 1.7 | 0.00 | 0.02 | 0.02 | 72 | 1011.4 |
| 20260503034057 | 40 | 0 | 0.0 | 2.6 | 0.00 | 0.02 | 0.02 | 73 | 1011.4 |
| 20260503033556 | 40 | 0 | 0.0 | 2.6 | 0.00 | 0.02 | 0.02 | 77 | 1011.4 |
| 20260503033055 | 40 | 0 | 0.0 | 2.6 | 0.00 | 0.02 | 0.02 | 79 | 1011.4 |
| 20260503032600 | 40 | 0 | 0.0 | 0.0 | 0.00 | 0.02 | 0.02 | 79 | 1011.4 |
| 20260503032056 | 41 | 0 | 0.0 | 0.0 | 0.00 | 0.02 | 0.02 | 79 | 1011.4 |
| 20260503031555 | 41 | 0 | 0.0 | 0.0 | 0.00 | 0.02 | 0.02 | 78 | 1011.4 |
| 20260503031057 | 41 | 0 | 0.0 | 1.7 | 0.00 | 0.02 | 0.02 | 78 | 1011.5 |
| 20260503030556 | 41 | 0 | 0.0 | 1.7 | 0.00 | 0.02 | 0.02 | 78 | 1011.6 |
| 20260503030056 | 41 | 0 | 0.0 | 1.7 | 0.00 | 0.02 | 0.02 | 78 | 1011.5 |